User: anonymous   Login
Location: Cañada de la Miga
(34.7595°N, 106.2317°W)
Time: 03:56:36
(UTC+00:00)
Language:

Vanguard 2 Rocket - Orbit

View from above orbital plane
View from above orbital plane
View from above satellite
View from above satellite

Ground track
Ground track

The orbit data is extracted from the following two-line orbital elements,

1 00012U 59001B   21331.30759928  .00000505  00000-0  29277-3 0  9991
2 00012  32.9061 303.9771 1664143 331.3873  20.4465 11.44438913340454
Epoch (UTC): 27 November 2021 07:22:56
Eccentricity: 0.1664143
inclination: 32.9061°
perigee height: 555 km
apogee height: 3324 km
right ascension of ascending node: 303.9771°
argument of perigee: 331.3873°
revolutions per day: 11.44438913
mean anomaly at epoch: 20.4465°
orbit number at epoch: 34045

The dashed part of the orbit path shows where the satellite is in the earth's shadow,  

DLR